Weather Roundup
Issued by NWS Springfield, MO

Home | Current Version | Previous Version | Text Only | Print | Product List | Glossary On
Versions: 1 2 3 4 5 6 7 8 9 10 11 12 13 14 15 16 17 18 19 20 21 22 23 24 25 26 27 28 29 30 31 32 33 34 35 36 37 38 39 40 41 42 43 44 45 46 47 48 49 50
000
NZUS99 KSGF 301207
HRRSGF

HOURLY WEATHER
NATIONAL WEATHER SERVICE SPRINGFIELD MO
700 AM CDT THU OCT 30 2014

......SGF CWA......

CITY           SKY/WX    TMP DP  RH WIND       PRES   REMARKS
SPRINGFIELD    CLEAR     45  35  68 S12       30.10S
6HR MIN TEMP:  43; 6HR MAX TEMP:  45;

JOPLIN         MOCLDY    50  39  66 S9        30.09S
6HR MIN TEMP:  46; 6HR MAX TEMP:  50;

WEST PLAINS    CLEAR     36  31  82 CALM      30.15S
6HR MIN TEMP:  36; 6HR MAX TEMP:  40;

ROLLA          CLEAR     40  31  70 S8        30.09F WCI  34
6HR MIN TEMP:  36; 6HR MAX TEMP:  45;

OSAGE BEACH    CLEAR     41  30  65 SE7       30.09S
BRANSON        CLEAR     41  36  81 CALM      30.12F

......SURROUNDING SGF CWA......

CITY           SKY/WX    TMP DP  RH WIND       PRES   REMARKS
CHANUTE        MOCLDY    51  41  68 S14       30.04F
PARSONS        PTCLDY    48  42  80 S7        30.07S
COFFEYVILLE    PTCLDY    45  42  89 S8        30.07S
EMPORIA        CLOUDY    57  38  48 SW13      30.00R
GROVE OK       CLEAR     43  43 100 CALM      30.11F
ROGERS AR      CLEAR     45  38  76 S6        30.13R
SILOAM SPRINGS CLEAR     39  32  75 CALM      30.13S
HARRISON AR    CLEAR     40  38  93 SE3       30.13S
NEAR YELLVILLE CLEAR     36  30  80 CALM      30.15F

......KANSAS AND MISSOURI......

CITY           SKY/WX    TMP DP  RH WIND       PRES   REMARKS
KANSAS CTY INT MOCLDY    51  41  68 SW8       30.00R
DOWNTOWN KC    CLOUDY    52  40  63 CALM      30.00S
COLUMBIA       MOCLDY    40  35  83 SE8       30.09F WCI  34
SEDALIA        PTCLDY    46  35  65 S9        30.06F
ST JOSEPH      PTCLDY    43  37  79 CALM      30.00F
ST LOUIS       PTCLDY    41  35  79 E7        30.15S
SPIRIT OF STL  PTCLDY    34  32  92 CALM      30.14F
KIRKSVILLE     LGT RAIN  43  38  82 S13       30.08F
WICHITA        MOCLDY    49  36  61 VRB5      30.05R
TOPEKA         MOCLDY    52  41  66 S6        29.99F
OLATHE         LGT RAIN  50  41  71 S3        30.01S

......TENNESSEE......

CITY           SKY/WX    TMP DP  RH WIND       PRES   REMARKS
MEMPHIS        CLEAR     46  40  79 CALM      30.16R
NASHVILLE      CLEAR     40  38  93 CALM      30.17R

......ARKANSAS.......

CITY           SKY/WX    TMP DP  RH WIND       PRES   REMARKS
FAYETTEVILLE   CLEAR     37  37 100 CALM      30.13F
FT SMITH       CLEAR     45  42  89 E5        30.14S
LITTLE ROCK    CLEAR     47  43  86 W3        30.18R

......OKLAHOMA.......

CITY           SKY/WX    TMP DP  RH WIND       PRES   REMARKS
TULSA          CLEAR     54  42  64 S10       30.08S
PONCA CITY     CLEAR     47  39  74 CALM      30.08R
MCALESTER      MOCLDY    43  41  93 CALM      30.14R
OKLAHOMA CITY  CLEAR     47  39  74 S7        30.11R

......IOWA............

CITY           SKY/WX    TMP DP  RH WIND       PRES   REMARKS
DES MOINES     CLOUDY    44  36  73 E7        30.06S
QUAD CITIES    MOCLDY    33  30  88 E3        30.12F

......ILLINOIS........

CITY           SKY/WX    TMP DP  RH WIND       PRES   REMARKS
QUINCY         MOCLDY    41  34  76 SE6       30.10F
CHICAGO        MOCLDY    35  31  85 CALM      30.13S




USA.gov is the U.S. government's official web portal to all federal, state and local government web resources and services.